GW6805 Weather Reports


time (UTC)temp
F
wind
direction
speed
knots
gust
knots
rain 1hr
in
rain 24hr
in
rain mn
in
humidity
%
barometer
mb
20260505200039 61 208 0.0 2.6 0.00 0.00 0.00 88 1012.3
20260505200005 62 360 0.9 3.5 0.00 0.00 0.00 88
20260505195405 62 360 0.9 3.5 0.00 0.00 0.00 88
20260505194529 62 208 1.7 3.5 0.00 0.00 0.00 88 1012.1
20260505194506 63 360 1.7 3.5 0.00 0.00 0.00 87
20260505193606 63 360 1.7 3.5 0.00 0.00 0.00 87
20260505193016 62 208 1.7 3.5 0.00 0.00 0.00 87 1012.0
20260505192705 63 360 1.7 5.2 0.00 0.00 0.00 87
20260505191826 63 360 1.7 5.2 0.00 0.00 0.00 87
20260505191609 63 208 1.7 5.2 0.00 0.00 0.00 87 1012.1
20260505190905 63 135 1.7 4.3 0.00 0.00 0.00 85
20260505190056 63 230 1.7 4.3 0.00 0.00 0.00 85 1011.9
20260505190006 64 22 5.2 6.1 0.00 0.00 0.00 84
20260505185405 64 22 5.2 6.1 0.00 0.00 0.00 84
20260505184536 64 225 4.3 6.1 0.00 0.00 0.00 84 1011.8
20260505184505 65 157 5.2 7.0 0.00 0.00 0.00 82
20260505183605 65 157 5.2 7.0 0.00 0.00 0.00 82
20260505183012 65 215 4.3 7.0 0.00 0.00 0.00 82 1011.5
20260505182705 66 22 5.2 7.8 0.00 0.00 0.00 80
20260505181805 66 22 5.2 7.8 0.00 0.00 0.00 80
20260505181613 66 209 4.3 7.8 0.00 0.00 0.00 80 1011.4
20260505180905 67 337 5.2 8.7 0.00 0.00 0.00 79
20260505180005 68 157 5.2 8.7 0.00 0.00 0.00 76
20260505175426 68 157 5.2 8.7 0.00 0.00 0.00 76
20260505174605 67 215 4.3 8.7 0.00 0.00 0.00 76 1011.7
20260505174526 68 225 7.0 9.6 0.00 0.00 0.00 74
20260505173605 68 225 7.0 9.6 0.00 0.00 0.00 74
20260505173021 68 250 5.2 9.6 0.00 0.00 0.00 74 1011.4
20260505172705 69 90 6.1 10.4 0.00 0.00 0.00 71
20260505171805 69 90 6.1 10.4 0.00 0.00 0.00 71
20260505171510 69 244 7.0 10.4 0.00 0.00 0.00 71 1011.5
20260505170905 70 22 5.2 11.3 0.00 0.00 0.00 72
20260505170137 69 209 4.3 11.3 0.00 0.00 0.00 72 1011.5
20260505170005 70 157 7.8 10.4 0.00 0.00 0.00 70
20260505165427 70 157 7.8 10.4 0.00 0.00 0.00 70
20260505164543 70 263 7.0 10.4 0.00 0.00 0.00 70 1011.7
20260505164505 70 90 6.1 10.4 0.00 0.00 0.00 69
20260505163605 70 90 6.1 10.4 0.00 0.00 0.00 69
20260505163020 70 260 6.1 10.4 0.00 0.00 0.00 69 1011.7
20260505162705 71 22 5.2 12.2 0.00 0.00 0.00 70
20260505161805 71 22 5.2 12.2 0.00 0.00 0.00 70
20260505161502 70 193 5.2 12.2 0.00 0.00 0.00 70 1011.7
20260505160905 70 315 10.4 11.3 0.00 0.00 0.00 72
20260505153046 69 237 7.8 12.2 0.00 0.00 0.00 74 1011.7
20260505152705 69 67 7.8 13.0 0.00 0.00 0.00 74
20260505151806 69 67 7.8 13.0 0.00 0.00 0.00 74
20260505151511 68 227 7.0 13.0 0.00 0.00 0.00 74 1012.0
20260505150926 70 315 5.2 12.2 0.00 0.00 0.00 71
20260505130115 72 227 10.4 15.6 0.00 0.00 0.00 62 1012.7
20260505124600 72 205 9.6 15.6 0.00 0.00 0.00 61 1012.8
20260505124505 72 270 7.8 13.0 0.00 0.00 0.00 64
20260505123626 72 270 7.8 13.0 0.00 0.00 0.00 64
20260505123050 72 188 7.8 13.0 0.00 0.00 0.00 64 1012.8
20260505122706 71 270 6.1 13.0 0.00 0.00 0.00 67
20260505121805 71 270 6.1 13.0 0.00 0.00 0.00 67
20260505121507 71 188 6.1 13.0 0.00 0.00 0.00 67 1013.0
20260505120907 70 315 10.4 13.0 0.00 0.00 0.00 70
20260505120105 70 238 8.7 13.0 0.00 0.00 0.00 70 1013.1
20260505120006 72 22 7.8 12.2 0.00 0.00 0.00 63
20260505115405 72 22 7.8 12.2 0.00 0.00 0.00 63
20260505114548 72 209 7.8 12.2 0.00 0.00 0.00 63 1013.0
20260505114506 71 360 9.6 14.8 0.00 0.00 0.00 67
20260505113626 71 360 9.6 14.8 0.00 0.00 0.00 67
20260505113117 71 224 8.7 14.8 0.00 0.00 0.00 67 1013.3
20260505112705 71 292 9.6 13.0 0.00 0.00 0.00 66
20260505111805 71 292 9.6 13.0 0.00 0.00 0.00 66
20260505111601 70 205 7.8 13.0 0.00 0.00 0.00 66 1013.4
20260505110926 71 202 6.1 13.9 0.00 0.00 0.00 66
20260505101805 72 90 8.7 13.0 0.00 0.00 0.00 66
20260505101515 71 244 7.0 13.0 0.00 0.00 0.00 66 1013.2
20260505100905 72 337 9.6 12.2 0.00 0.00 0.00 66
20260505100111 71 207 7.8 12.2 0.00 0.00 0.00 66 1013.3
20260505100005 70 315 11.3 12.2 0.00 0.00 0.00 69
20260505095405 70 315 11.3 12.2 0.00 0.00 0.00 69
20260505094550 70 222 7.0 12.2 0.00 0.00 0.00 69 1013.2
20260505094505 70 292 8.7 13.0 0.00 0.00 0.00 72
20260505093626 70 292 8.7 13.0 0.00 0.00 0.00 72
20260505093036 69 205 8.7 13.0 0.00 0.00 0.00 72 1013.2
20260505092705 69 180 7.8 10.4 0.00 0.00 0.00 71
20260505091805 69 180 7.8 10.4 0.00 0.00 0.00 71
20260505091505 69 200 5.2 10.4 0.00 0.00 0.00 71 1013.4
20260505090905 70 135 5.2 10.4 0.00 0.00 0.00 73
20260505090005 68 202 7.8 9.6 0.00 0.00 0.00 78
20260505085405 68 202 7.8 9.6 0.00 0.00 0.00 78
20260505084545 68 185 5.2 9.6 0.00 0.00 0.00 78 1013.1
20260505084526 68 180 7.0 8.7 0.00 0.00 0.00 79
20260505083605 68 180 7.0 8.7 0.00 0.00 0.00 79
20260505083021 68 200 5.2 8.7 0.00 0.00 0.00 79 1013.2
20260505082726 67 45 5.2 9.6 0.00 0.00 0.00 79
20260505081805 67 45 5.2 9.6 0.00 0.00 0.00 79
20260505081505 67 242 5.2 9.6 0.00 0.00 0.00 79 1013.4
20260505080905 68 135 7.0 12.2 0.00 0.00 0.00 76
20260505080107 68 214 7.0 12.2 0.00 0.00 0.00 76 1013.3
20260505080005 68 292 7.8 8.7 0.00 0.00 0.00 78
20260505075405 68 292 7.8 8.7 0.00 0.00 0.00 78
20260505074547 68 237 6.1 8.7 0.00 0.00 0.00 78 1013.2
20260505074505 68 157 5.2 7.8 0.00 0.00 0.00 81
20260505073605 68 157 5.2 7.8 0.00 0.00 0.00 81
20260505073016 67 215 4.3 7.8 0.00 0.00 0.00 81 1013.2
20260505072705 67 292 5.2 7.8 0.00 0.00 0.00 86
20260505071805 67 292 5.2 7.8 0.00 0.00 0.00 86
20260505071605 67 205 5.2 7.8 0.00 0.00 0.00 86 1013.1
20260505070905 66 22 1.7 6.1 0.00 0.00 0.00 92
20260505070044 66 257 1.7 6.1 0.00 0.00 0.00 92 1013.1
20260505070005 64 135 0.9 2.6 0.00 0.00 0.00 95
20260505065427 64 135 0.9 2.6 0.00 0.00 0.00 95
20260505064506 64 67 0.9 2.6 0.00 0.00 0.00 95
20260505064502 64 230 0.9 2.6 0.00 0.00 0.00 95 1012.9
20260505063605 64 67 0.9 2.6 0.00 0.00 0.00 95
20260505063053 63 227 0.9 2.6 0.00 0.00 0.00 95 1013.1
20260505062705 63 67 0.0 0.9 0.00 0.00 0.00 96
20260505061805 63 67 0.0 0.9 0.00 0.00 0.00 96
20260505061531 62 227 0.0 0.9 0.00 0.00 0.00 96 1013.2
20260505060905 62 45 0.0 0.9 0.00 0.00 0.00 96
20260505060116 62 226 0.0 0.9 0.00 0.00 0.00 96 1013.2
20260505060026 61 45 0.0 1.7 0.00 0.00 0.00 96
20260505055426 61 45 0.0 1.7 0.00 0.00 0.00 96
20260505054607 61 226 0.0 1.7 0.00 0.00 0.00 96 1013.4
20260505054526 60 45 0.0 2.6 0.00 0.00 0.00 96
20260505053605 60 45 0.0 2.6 0.00 0.00 0.00 96
20260505053058 60 226 0.0 2.6 0.00 0.00 0.00 96 1013.4
20260505052705 59 45 1.7 1.7 0.00 0.00 0.00 95
20260505051805 59 45 1.7 1.7 0.00 0.00 0.00 95
20260505051524 59 226 0.9 1.7 0.00 0.00 0.00 95 1013.2
20260505050905 59 45 0.0 1.7 0.00 0.00 0.00 95
20260505050105 59 226 0.9 1.7 0.00 0.00 0.00 95 1013.1
20260505041608 58 226 0.9 1.7 0.00 0.00 0.00 94 1013.3
20260505040905 59 45 0.0 2.6 0.00 0.00 0.00 94
20260505040106 58 226 0.9 2.6 0.00 0.00 0.00 94 1013.2
20260505040027 60 45 0.0 0.9 0.00 0.00 0.00 94
20260505035405 60 45 0.0 0.9 0.00 0.00 0.00 94
20260505034513 59 226 0.0 0.9 0.00 0.00 0.00 94 1013.2
20260505034505 60 45 0.9 2.6 0.00 0.00 0.00 94
20260505033605 60 45 0.9 2.6 0.00 0.00 0.00 94
20260505033108 60 226 0.0 2.6 0.00 0.00 0.00 94 1013.3
20260505032727 61 45 0.9 1.7 0.00 0.00 0.00 95
20260505031827 61 45 0.9 1.7 0.00 0.00 0.00 95
20260505031551 60 226 0.0 1.7 0.00 0.00 0.00 95 1013.3
20260505030926 60 45 0.9 2.6 0.00 0.00 0.00 95
20260505030027 60 45 1.7 2.6 0.00 0.00 0.00 94
20260505030004 60 226 0.9 2.6 0.00 0.00 0.00 95 1013.4
20260505025405 60 45 1.7 2.6 0.00 0.00 0.00 94
20260505024557 60 226 0.9 2.6 0.00 0.00 0.00 94 1013.4
20260505024506 60 45 0.9 2.6 0.00 0.00 0.00 94
20260505023605 60 45 0.9 2.6 0.00 0.00 0.00 94
20260505023043 60 226 0.9 2.6 0.00 0.00 0.00 94 1013.6
20260505022726 61 45 1.7 2.6 0.00 0.00 0.00 94
20260505021826 61 45 1.7 2.6 0.00 0.00 0.00 94
20260505021610 60 226 1.7 2.6 0.00 0.00 0.00 94 1013.7
20260505020906 62 45 2.6 6.1 0.00 0.00 0.00 94
20260505020022 61 226 2.6 6.1 0.00 0.00 0.00 94 1013.8
20260505020005 62 360 7.0 7.0 0.00 0.00 0.00 94
20260505015429 62 360 7.0 7.0 0.00 0.00 0.00 94
20260505014522 61 192 3.5 7.0 0.00 0.00 0.00 94 1013.9
20260505014505 62 67 1.7 3.5 0.00 0.00 0.00 94
20260505013605 62 67 1.7 3.5 0.00 0.00 0.00 94
20260505013104 61 275 1.7 3.5 0.00 0.00 0.00 94 1014.1
20260505012705 62 67 1.7 2.6 0.00 0.00 0.00 95
20260505011805 62 67 1.7 2.6 0.00 0.00 0.00 95
20260505011525 61 275 0.9 2.6 0.00 0.00 0.00 95 1014.2
20260505010926 61 67 1.7 1.7 0.00 0.00 0.00 94
20260505010005 61 67 0.0 1.7 0.00 0.00 0.00 94
20260505010001 61 275 0.9 1.7 0.00 0.00 0.00 94 1014.3
20260505005405 61 67 0.0 1.7 0.00 0.00 0.00 94
20260505004516 61 275 0.0 1.7 0.00 0.00 0.00 94 1014.3
20260505004506 62 67 1.7 2.6 0.00 0.00 0.00 94
20260505003605 62 67 1.7 2.6 0.00 0.00 0.00 94
20260505003049 61 275 1.7 2.6 0.00 0.00 0.00 94 1014.5
20260505002705 62 180 0.0 3.5 0.00 0.00 0.00 94
20260505001826 62 180 0.0 3.5 0.00 0.00 0.00 94
20260505001606 61 184 0.0 3.5 0.00 0.00 0.00 94 1014.4
20260505000905 61 67 0.9 3.5 0.00 0.00 0.00 94
20260505000039 61 163 1.7 3.5 0.00 0.00 0.00 94 1014.6
20260505000005 60 45 2.6 2.6 0.00 0.00 0.00 94
20260504235426 60 45 2.6 2.6 0.00 0.00 0.00 94
20260504234639 60 34 0.9 2.6 0.00 0.00 0.00 94 1014.9
20260504234507 60 292 0.9 2.6 0.00 0.00 0.00 94
20260504233605 60 292 0.9 2.6 0.00 0.00 0.00 94
20260504233020 60 29 0.9 2.6 0.00 0.00 0.00 94 1014.9
20260504232705 60 292 2.6 4.3 0.00 0.00 0.00 93
20260504231805 60 292 2.6 4.3 0.00 0.00 0.00 93
20260504231610 60 29 2.6 4.3 0.00 0.00 0.00 93 1014.9
20260504230905 61 225 2.6 2.6 0.00 0.00 0.00 93
20260504230038 61 218 1.7 2.6 0.00 0.00 0.00 93 1014.9
20260504230006 62 225 1.7 2.6 0.00 0.00 0.00 93
20260504225408 62 225 1.7 2.6 0.00 0.00 0.00 93
20260504224544 61 218 0.9 2.6 0.00 0.00 0.00 93 1014.7
20260504224505 62 225 2.6 3.5 0.00 0.00 0.00 93
20260504223605 62 225 2.6 3.5 0.00 0.00 0.00 93
20260504223104 61 218 1.7 3.5 0.00 0.00 0.00 93 1014.7
20260504222705 62 225 1.7 3.5 0.00 0.00 0.00 93
20260504221805 62 225 1.7 3.5 0.00 0.00 0.00 93
20260504221513 61 218 0.9 3.5 0.00 0.00 0.00 93 1014.5
20260504220905 62 225 0.0 0.9 0.00 0.00 0.00 93
20260504220050 62 218 0.0 0.9 0.00 0.11 0.00 93 1014.6
20260504220026 62 225 0.9 3.5 0.00 0.00 0.00 93
20260504215405 62 225 0.9 3.5 0.00 0.00 0.00 93
20260504214517 62 218 0.0 3.5 0.00 0.11 0.00 93 1014.4
20260504214506 62 22 2.6 6.1 0.00 0.00 0.00 93
20260504213606 62 22 2.6 6.1 0.00 0.00 0.00 93
20260504213056 62 209 2.6 6.1 0.00 0.11 0.00 93 1014.6
20260504212706 62 247 2.6 7.0 0.00 0.06 0.00 93
20260504211806 62 247 2.6 7.0 0.00 0.06 0.00 93
20260504211504 62 203 3.5 7.0 0.00 0.11 0.00 93 1014.6
20260504210906 62 225 0.9 3.5 0.00 0.11 0.00 93
20260504210110 61 234 1.7 3.5 0.00 0.11 0.00 93 1014.6
20260504210027 61 225 0.0 1.7 0.00 0.11 0.00 93
20260504205405 61 225 0.0 1.7 0.00 0.11 0.00 93
20260504204548 61 234 0.0 1.7 0.00 0.11 0.00 93 1014.5
20260504204505 61 225 0.9 2.6 0.00 0.11 0.00 92
20260504203605 61 225 0.9 2.6 0.00 0.11 0.00 92
20260504203021 61 234 0.9 2.6 0.00 0.11 0.00 92 1014.6
20260504202705 62 225 0.9 1.7 0.00 0.11 0.00 91
20260504201827 62 225 0.9 1.7 0.00 0.11 0.00 91
20260504201616 61 234 0.0 1.7 0.00 0.11 0.00 91 1014.5
20260504200905 62 225 1.7 2.6 0.00 0.11 0.00 91